CW1248 Weather Reports


Display with metric or nautical units.
time (UTC)temp
F
wind
direction
speed
MPH
gust
MPH
rain 1hr
in
rain 24hr
in
rain mn
in
humidity
%
barometer
mb
20260903133033 72 105 5.0 11.0 0.00 0.00 0.00 83 1011.2
20260903131516 72 131 3.0 7.0 0.00 0.00 0.00 83 1011.2
20260903130031 72 134 3.0 14.0 0.00 0.00 0.00 83 1011.0
20260903124532 72 178 5.0 9.0 0.00 0.00 0.00 83 1010.9
20260903123036 73 221 2.0 6.0 0.00 0.00 0.00 84 1010.8
20260903121525 73 129 4.0 14.0 0.00 0.00 0.00 84 1010.1
20260903120032 73 129 3.0 11.0 0.00 0.00 0.00 86 1010.3
20260903114524 73 134 7.0 18.0 0.00 0.00 0.00 87 1010.7
20260903113037 73 177 7.0 16.0 0.00 0.00 0.00 88 1011.4
20260903111528 73 178 4.0 10.0 0.00 0.00 0.00 89 1011.5
20260903110105 73 252 3.0 7.0 0.00 0.00 0.00 89 1011.3
20260903104508 73 211 2.0 10.0 0.00 0.00 0.00 90 1011.2
20260903103007 72 129 4.0 14.0 0.00 0.08 0.00 91 1011.3
20260903101531 72 178 2.0 8.0 0.00 0.13 0.00 91 1011.2
20260903100011 71 48 3.0 9.0 0.00 0.13 0.00 91 1011.0
20260903094542 71 61 3.0 12.0 0.00 0.13 0.00 92 1011.4
20260903093015 71 128 3.0 7.0 0.00 0.13 0.00 92 1011.2
20260903091514 71 144 2.0 4.0 0.00 0.13 0.00 92 1011.1
20260903090011 71 80 1.0 4.0 0.00 0.13 0.00 92 1010.8
20260903084520 71 83 2.0 6.0 0.00 0.13 0.00 92 1010.8
20260903083031 71 78 2.0 6.0 0.00 0.13 0.00 92 1011.0
20260903081538 71 56 1.0 6.0 0.00 0.13 0.00 92 1011.0
20260903080015 71 74 2.0 6.0 0.00 0.13 0.00 92 1011.0
20260903074516 71 76 1.0 4.0 0.00 0.13 0.00 92 1011.2
20260903073013 72 102 2.0 6.0 0.00 0.13 0.00 92 1011.1
20260903071507 72 84 1.0 4.0 0.00 0.14 0.00 92 1011.5
20260903070027 72 85 2.0 5.0 0.00 0.17 0.00 92 1011.4
20260903064527 72 87 2.0 4.0 0.00 0.18 0.00 91 1011.5
20260903063024 72 61 1.0 5.0 0.00 0.20 0.00 91 1011.5
20260903061513 72 59 1.0 3.0 0.00 0.20 0.00 91 1011.6
20260903060019 72 67 2.0 4.0 0.00 0.21 0.00 90 1011.6
20260903054535 72 76 2.0 5.0 0.00 0.21 0.00 90 1011.7
20260903053045 72 41 1.0 4.0 0.00 0.21 0.00 89 1011.6
20260903051515 73 61 2.0 4.0 0.00 0.21 0.00 89 1011.6
20260903050026 73 61 1.0 3.0 0.00 0.22 0.00 88 1011.6
20260903044526 73 51 1.0 2.0 0.00 0.24 0.23 88 1011.7
20260903043010 73 57 1.0 3.0 0.00 0.24 0.23 88 1011.8
20260903041514 73 93 1.0 4.0 0.00 0.24 0.23 87 1011.8
20260903040012 74 76 1.0 4.0 0.00 0.24 0.23 87 1012.0
20260903034510 74 57 1.0 3.0 0.00 0.24 0.23 86 1012.0
20260903033010 74 81 2.0 6.0 0.00 0.24 0.23 86 1012.0
20260903031518 74 126 3.0 6.0 0.00 0.24 0.23 85 1012.1
20260903030036 74 93 2.0 6.0 0.00 0.24 0.23 85 1012.1
20260903024535 75 80 1.0 3.0 0.00 0.24 0.23 84 1012.0
20260903023013 75 93 2.0 4.0 0.00 0.24 0.23 82 1011.9
20260903021511 76 78 2.0 4.0 0.00 0.24 0.23 81 1011.7
20260903020010 77 67 1.0 2.0 0.00 0.24 0.23 80 1011.8
20260903014506 77 80 1.0 2.0 0.00 0.24 0.23 80 1011.8
20260903013015 78 51 0.0 1.0 0.00 0.24 0.23 78 1011.7
20260903011538 79 72 1.0 2.0 0.00 0.24 0.23 75 1011.5
20260903010019 81 325 0.0 3.0 0.00 0.24 0.23 72 1011.4
20260903004517 83 51 1.0 3.0 0.00 0.24 0.23 69 1011.3
20260903003012 85 9 1.0 4.0 0.00 0.24 0.23 66 1011.4
20260903001524 87 93 0.0 4.0 0.00 0.24 0.23 64 1011.3
20260903000031 89 137 1.0 4.0 0.00 0.24 0.23 63 1011.3
20260902234514 89 83 1.0 6.0 0.00 0.24 0.23 58 1011.3
20260902233030 90 85 1.0 5.0 0.00 0.24 0.23 55 1011.3
20260902231519 91 173 1.0 4.0 0.00 0.24 0.23 54 1011.4
20260902230020 91 119 1.0 7.0 0.00 0.24 0.23 55 1011.5
20260902224514 91 68 2.0 7.0 0.00 0.24 0.23 55 1011.6
20260902223027 90 84 2.0 6.0 0.00 0.24 0.23 54 1011.8
20260902221530 91 9 2.0 7.0 0.00 0.24 0.23 53 1011.6
20260902220031 90 68 2.0 8.0 0.00 0.24 0.23 55 1011.5
20260902214518 90 190 1.0 8.0 0.00 0.24 0.23 53 1011.9
20260902213021 89 161 2.0 7.0 0.00 0.24 0.23 56 1011.8
20260902211530 89 208 3.0 7.0 0.00 0.24 0.23 56 1011.9
20260902210037 89 51 3.0 7.0 0.00 0.24 0.23 53 1012.1
20260902204535 89 158 2.0 6.0 0.00 0.24 0.23 55 1011.9
20260902203028 89 93 3.0 7.0 0.00 0.24 0.23 57 1012.0
20260902201531 88 85 3.0 7.0 0.00 0.24 0.23 56 1012.1
20260902200027 88 115 3.0 7.0 0.00 0.24 0.23 58 1012.3
20260902194519 88 108 3.0 8.0 0.00 0.24 0.23 59 1012.8
20260902193018 87 102 3.0 7.0 0.00 0.24 0.23 57 1012.8
20260902191518 86 212 2.0 7.0 0.00 0.24 0.23 59 1012.9
20260902190021 85 64 2.0 8.0 0.00 0.24 0.23 57 1013.0
20260902184527 84 291 2.0 7.0 0.00 0.24 0.23 61 1013.1
20260902183043 83 221 1.0 10.0 0.00 0.24 0.23 65 1013.1
20260902181514 83 164 2.0 9.0 0.00 0.24 0.23 67 1013.1
20260902180023 82 38 2.0 8.0 0.00 0.24 0.23 65 1013.3
20260902174514 81 80 4.0 8.0 0.00 0.24 0.23 71 1013.4
20260902173031 80 116 3.0 8.0 0.00 0.24 0.23 71 1013.7
20260902171514 78 93 3.0 7.0 0.00 0.24 0.23 73 1014.1
20260902170024 78 212 1.0 4.0 0.00 0.24 0.23 72 1014.4
20260902164530 77 212 1.0 5.0 0.00 0.24 0.23 73 1014.4
20260902163027 77 82 3.0 8.0 0.00 0.24 0.23 76 1014.0
20260902161517 76 78 2.0 9.0 0.00 0.24 0.23 79 1014.0
20260902160014 75 111 2.0 7.0 0.00 0.24 0.23 78 1014.0
20260902154533 73 78 4.0 9.0 0.00 0.24 0.23 81 1013.7
20260902153038 72 59 4.0 8.0 0.00 0.24 0.23 82 1013.7
20260902151520 72 54 5.0 9.0 0.00 0.24 0.23 83 1013.6
20260902150027 71 93 3.0 9.0 0.00 0.24 0.23 86 1013.6
20260902144523 69 113 3.0 7.0 0.00 0.24 0.23 90 1013.6
20260902143023 67 61 3.0 7.0 0.00 0.24 0.23 94 1013.6
20260902141526 66 41 2.0 7.0 0.00 0.24 0.23 94 1013.8
20260902140036 66 64 3.0 7.0 0.00 0.24 0.23 95 1013.8
20260902134530 65 105 2.0 8.0 0.00 0.24 0.23 95 1013.7